Location: Bosdarros
(43.2167°N, 0.3667°W)
Time: 02:17:17
(UTC+00:00)

Cosmos 1655 Rocket - Pass Details

Date: 22 April 2021
Orbit: 970 x 1007 km, 82.9° (Epoch: 15 May)

Event Time Altitude Azimuth Distance (km) Brightness Sun altitude
Rises 20:37:59 0° 352° (N) 3,700 7.7 -17.7°
Reaches altitude 10° 20:40:31 10° 353° (N) 2,742 7.0 -18.1°
Maximum altitude 20:46:50 87° 84° (E) 982 3.9 -19.0°
Enters shadow 20:50:55 23° 172° (S) 1,930 5.1 -19.6°
